Location: Praha
(50.0830°N, 14.4670°E)
Time: 22:39:01
(UTC+01:00)

ISS - Pass Details

Date: 24 November 2021
Orbit: 417 x 423 km, 51.6° (Epoch: 28 November)

Event Time Altitude Azimuth Distance (km) Brightness Sun altitude
Rises 19:22:45 0° 271° (W) 2,379 1.2 -30.7°
Reaches altitude 10° 19:24:52 10° 274° (W) 1,514 0.0 -31.0°
Enters shadow 19:25:20 13° 275° (W) 1,323 -0.4 -31.1°
